This demonstration page uses our WeatherBlox Daily Observations layout. Learn more.

Left ArrowRight Arrow

38.80484, -77.04692

Hourly Observations for July 7, 2020

Temp ( °F °C ) Dew Point ( °F °C ) Humidity (%) Winds ( mph kmh ) Pressure ( in mb ) Visibility ( mi km ) Precip ( " mm )
12:02 am 00:02 Cloudy with Nearby Thunderstorms 73 22.8 70 21.1 90 90 ENE 10 17 30.09 1019 10 16 0.00 0.00
12:09 am 00:09 Cloudy with Nearby Thunderstorms 73 22.8 70 21.1 90 90 NE 13 20 30.10 1019 10 16 0.00 0.00
12:16 am 00:16 Cloudy with Nearby Thunderstorms 73 22.8 70 21.1 90 90 ENE 10 17 30.11 1020 10 16 0.00 0.00
12:20 am 00:20 Cloudy with Thunderstorms 73 22.8 70 21.1 90 90 VRB 5 7 30.13 1020 10 16 0.00 0.00
12:27 am 00:27 Cloudy with Strong Thunderstorms 73 22.8 70 21.1 90 90 ENE 9 15 30.11 1020 2 2 0.04 1.02
12:39 am 00:39 Cloudy with Strong Thunderstorms 73 22.8 71 21.7 94 94 SE 12 19 30.10 1019 2 3 0.28 7.11
12:43 am 00:43 Cloudy with Thunderstorms 73 22.8 71 21.7 94 94 SE 12 19 30.10 1019 4 6 0.29 7.37
12:52 am 00:52 Cloudy with Thunderstorms 73 22.8 70 21.1 90 90 VRB 3 6 30.10 1019 10 16 0.29 7.37
1:05 am 01:05 Cloudy with Strong Thunderstorms 72 22.2 70 21.1 94 94 Calm 30.10 1019 2 3 0.02 0.51
1:21 am 01:21 Cloudy with Strong Thunderstorms 73 22.8 70 21.1 90 90 ENE 12 19 30.08 1019 2 3 0.31 7.87
1:28 am 01:28 Cloudy with Strong Thunderstorms 73 22.8 70 21.1 90 90 E 14 22 30.07 1018 2 2 0.49 12.45
1:38 am 01:38 Cloudy with Strong Thunderstorms 73 22.8 70 21.1 90 90 E 10 17 30.09 1019 3 4 0.70 17.78
1:43 am 01:43 Cloudy with Strong Thunderstorms 73 22.8 70 21.1 90 90 ENE 9 15 30.08 1019 4 6 0.73 18.54
1:52 am 01:52 Cloudy with Strong Thunderstorms 73 22.8 70 21.1 90 90 E 14 22 30.06 1018 3 4 0.83 21.08
2:00 am 02:00 Cloudy with Strong Thunderstorms 73 22.8 70 21.1 90 90 E 9 15 30.08 1019 5 8 0.03 0.76
2:14 am 02:14 Cloudy with Strong Thunderstorms 72 22.2 70 21.1 94 94 VRB 3 6 30.10 1019 2 3 0.10 2.54
2:21 am 02:21 Cloudy with Strong Thunderstorms 72 22.2 70 21.1 94 94 NNE 6 9 30.08 1019 2 2 0.22 5.59
2:33 am 02:33 Cloudy with Strong Thunderstorms 72 22.2 70 21.1 94 94 SW 17 28 30.07 1018 1 1 0.58 14.73
2:40 am 02:40 Cloudy with Strong Thunderstorms 71 21.7 70 21.1 96 96 SW 20 31 30.06 1018 1 2 0.78 19.81
2:44 am 02:44 Cloudy with Strong Thunderstorms 71 21.7 70 21.1 96 96 SSW 21 33 30.06 1018 1 2 0.88 22.35
2:52 am 02:52 Cloudy with Strong Thunderstorms 71 21.7 69 20.6 94 94 S 23 37 30.04 1017 1 2 1.08 27.43
3:00 am 03:00 Cloudy with Strong Thunderstorms 72 22.2 70 21.1 94 94 S 22 35 30.04 1017 3 4 0.11 2.79
3:08 am 03:08 Cloudy with Strong Thunderstorms 71 21.7 69 20.6 94 94 SSW 21 33 30.04 1017 6 10 0.13 3.30
3:27 am 03:27 Cloudy with Thunderstorms 74 23.3 70 21.1 88 88 S 22 35 30.05 1018 10 16 0.13 3.30
3:47 am 03:47 Cloudy with Nearby Thunderstorms 73 23 68 20 83 83 S 14 22 30.03 1017 10 16 0.13 3.30
3:52 am 03:52 Cloudy with Nearby Thunderstorms 73 22.8 68 20 84 84 S 15 24 30.02 1017 10 16 0.13 3.30
3:56 am 03:56 Cloudy 73 22.8 68 20 84 84 S 12 19 30.02 1017 10 16 0.00 0.00
4:52 am 04:52 Cloudy 72 22.2 69 20.6 91 91 WSW 3 6 30.03 1017 10 16 0.00 0.00
5:52 am 05:52 Mostly Cloudy 72 22.2 69 20.6 91 91 NNW 7 11 30.05 1018 10 16 0.00 0.00
6:52 am 06:52 Mostly Cloudy 73 22.8 69 20.6 87 87 NNE 7 11 30.07 1018 10 16 0.00 0.00
7:52 am 07:52 Mostly Cloudy 74 23.3 70 21.1 88 88 ENE 8 13 30.07 1018 10 16 0.00 0.00
8:52 am 08:52 Mostly Cloudy 75 23.9 70 21.1 84 84 ENE 7 11 30.07 1018 10 16 0.00 0.00
9:42 am 09:42 Cloudy 77 25 70 21.1 79 79 ENE 5 7 30.07 1018 10 16 0.00 0.00
9:52 am 09:52 Cloudy 77 25 70 21.1 79 79 VRB 3 6 30.07 1018 10 16 0.00 0.00
10:52 am 10:52 Cloudy 80 26.7 70 21.1 71 71 Calm 30.07 1018 10 16 0.00 0.00
11:52 am 11:52 Mostly Cloudy 82 27.8 71 21.7 69 69 Calm 30.07 1018 10 16 0.00 0.00
12:52 pm 12:52 Mostly Cloudy 83 28.3 72 22.2 70 70 SW 5 7 30.07 1018 10 16 0.00 0.00
1:52 pm 13:52 Mostly Cloudy 85 29.4 72 22.2 65 65 S 6 9 30.06 1018 10 16 0.00 0.00
2:42 pm 14:42 Mostly Cloudy 86 30 73 22.8 65 65 SE 6 9 30.04 1017 10 16 0.00 0.00
2:52 pm 14:52 Mostly Cloudy 86 30 73 22.8 65 65 SSE 7 11 30.04 1017 10 16 0.00 0.00
3:52 pm 15:52 Partly Cloudy 88 31.1 73 22.8 61 61 SSE 7 11 30.01 1016 10 16 0.00 0.00
4:52 pm 16:52 Mostly Cloudy 90 32.2 73 22.8 58 58 SSW 6 9 29.99 1016 10 16 0.00 0.00
5:11 pm 17:11 Mostly Cloudy 90 32.2 74 23.3 59 59 SSE 7 11 29.98 1015 10 16 0.00 0.00
5:52 pm 17:52 Mostly Cloudy 85 29.4 72 22.2 65 65 ESE 13 20 29.98 1015 10 16 0.00 0.00
6:07 pm 18:07 Mostly Cloudy with Nearby Thunderstorms 83 28.3 75 23.9 77 77 SE 10 17 29.98 1015 10 16 0.00 0.00
6:11 pm 18:11 Mostly Cloudy with Thunderstorms 83 28.3 75 23.9 77 77 SE 9 15 29.98 1015 10 16 0.00 0.00
6:32 pm 18:32 Mostly Cloudy with Nearby Thunderstorms 85 29.4 77 25 77 77 ESE 9 15 29.98 1015 10 16 0.00 0.00
6:52 pm 18:52 Mostly Cloudy with Nearby Thunderstorms 86 30 77 25 75 75 ESE 8 13 29.98 1015 10 16 0.00 0.00
7:23 pm 19:23 Mostly Cloudy 85 29.4 76 24.4 75 75 E 7 11 29.99 1015 10 16 0.00 0.00
7:28 pm 19:28 Mostly Cloudy with Nearby Thunderstorms 85 29.4 77 25 77 77 ENE 10 17 29.99 1015 10 16 0.00 0.00
7:52 pm 19:52 Mostly Cloudy 82 27.8 74 23.3 77 77 ENE 12 19 29.99 1016 10 16 0.00 0.00
8:52 pm 20:52 Mostly Cloudy 81 27.2 75 23.9 82 82 ESE 5 7 30.00 1016 10 16 0.00 0.00
9:52 pm 21:52 Mostly Cloudy 82 27.8 74 23.3 77 77 SE 7 11 30.01 1016 10 16 0.00 0.00
10:52 pm 22:52 Partly Cloudy 81 27.2 74 23.3 79 79 S 10 17 30.02 1017 10 16 0.00 0.00
11:52 pm 23:52 Partly Cloudy 80 26.7 74 23.3 82 82 SSE 6 9 30.02 1017 10 16 0.00 0.00

Powered by AerisWeather